Terug naar catalogus

TITAN 3C TRANSTAGE DEB

ActiefMEO
NORAD 38705·DEBRIS·🇺🇸 United States

Gelanceerd Sep 26, 1968 vanaf Cape Canaveral Space Force Station

Loading…

Volgende Passages (komende 24 uur)

TLE

VersSource: Space-Track

Epoch: Sep 14, 2026, 06:06 UTC

1 38705U 68081AF  26257.25434358 -.00000069  00000-0  00000-0 0  9998
2 38705   3.3909  61.0747 0286696   1.6042 358.8052  1.02088360 75971

Volg TITAN 3C TRANSTAGE DEB in realtime met AllMySat

Download on the App Store